Location: Heidgraben
(53.7081°N, 9.6576°E)
Time: 21:06:40
(UTC+00:00)

JB-3 - Pass Details

Date: 05 July 2020
Orbit: 526 x 590 km, 97.3° (Epoch: 14 August)

Event Time Altitude Azimuth Distance (km) Brightness Sun altitude
Rises 21:39:09 0° 14° (NNE) 2,704 8.7 -10.2°
Reaches altitude 10° 21:41:18 10° 17° (NNE) 1,800 7.7 -10.3°
Maximum altitude 21:45:11 74° 102° (ESE) 557 4.2 -10.6°
Enters shadow 21:48:43 12° 188° (S) 1,659 6.2 -10.8°
